Погода в Кавосе

Греция     39°23′02″N   20°06′44″E
темп.,
°C
ветер,
м/с
пор.,
м/с
влажн.,
%
обл.,
%
осадки,
мм/ч
давл.,
гПа
погр.,
м
9 мая, вс
вс900:00+19с45795 0.0 101455
03:00+19ссв23743 0.0 101527
06:00+19св227213 0.0 101526
09:00+19вюв227535 0.0 101736
12:00+20юз33743 0.0 101982
15:00+21юз44730 0.0 1020103
18:00+20ю12720 0.0 1019125
21:00+20ююв33800 0.0 102082
10 мая, пн
пн1000:00+19юв46860 0.0 1021167
03:00+18ююв34870 0.0 1020134
06:00+18ююв34801 0.0 1019138
09:00+18ююв22725 0.0 1020157
12:00+19ююз436917 0.0 1020202
15:00+19ююз437042 0.0 1019225
18:00+19зсз127297 0.0 1018174
21:00+18ссз22790 0.0 1018121
11 мая, вт
вт1100:00+18сз11800 0.0 101861
03:00+18сз11800 0.0 101723
06:00+18ссв11790 0.0 101626
09:00+18вюв11772 0.0 101679
12:00+19ююз33755 0.0 1016186
15:00+19ююз33690 0.0 1015189
18:00+20юз33653 0.0 1014168
21:00+19юз22747 0.0 101328
12 мая, ср
ср1200:00+19ююв12750 0.0 101316
03:00+19юв227489 0.0 101251
06:00+18юв3475100 0.0 1011165
09:00+18ююв45771 0.0 1012299
12:00+19ююв67791 0.0 1012528
15:00+19ю78803 0.0 1011710
18:00+19юз24820 0.1 1010296
21:00+19з33690 0.2 101073
13 мая, чт
чт1300:00+18сз22710 0.0 1011123
03:00+18с11690 0.0 1010199
06:00+17ссв22710 0.0 1010275
09:00+17всв22720 0.0 1011275
12:00+18ю33725 0.0 1011343
15:00+19юз5462100 0.0 1012498
18:00+18ююз33625 0.0 1011438
21:00+18ююв44680 0.0 1012593